Satellite-Ground Cal/Val Site Overpasses Predictions

Prediction of Satellite NPP Overpassing Cal/Val Site: Antarctic Dome C

Ground Cal/Val Site Location: Latitude: -75.10, Longitude: 123.35; Satellite-Ground Site NADIR distance within 100 km.

Table of predicted overpasses for the next 14.0 days since TLE Epoch: 4/6/2012
Interval Starting Time Ending Time Minimum Distance Time Minimum Distance (km)
1 04/06/2012 14:35:28 04/06/2012 14:35:42 04/06/2012 14:35:35 85.35
2 04/07/2012 07:36:59 04/07/2012 07:37:26 04/07/2012 07:37:13 40.00
3 04/08/2012 07:18:13 04/08/2012 07:18:33 04/08/2012 07:18:23 69.91
4 04/10/2012 15:00:27 04/10/2012 15:00:51 04/10/2012 15:00:39 58.93
5 04/11/2012 14:41:36 04/11/2012 14:42:01 04/11/2012 14:41:49 50.36
6 04/12/2012 07:43:18 04/12/2012 07:43:37 04/12/2012 07:43:27 75.26
7 04/13/2012 07:24:23 04/13/2012 07:24:51 04/13/2012 07:24:37 32.59
8 04/15/2012 15:06:50 04/15/2012 15:06:57 04/15/2012 15:06:53 96.78
9 04/16/2012 14:47:49 04/16/2012 14:48:18 04/16/2012 14:48:03 14.81


NCC Satellite Cal/Val Overpasses Prediction Service
